Wind_Speed
17 3 8 14 12 11 7 5 8 7 6 5 7 5 8 19 15 15 17 17 24 36 34 29 25 20 15 10 5 5 9 5 5 7 8 11 16 21 20 20 21 26 25 22
6 9 14 5 3 6 8 8 9 3 5 4 6 5 6 9 18 22 19 18 20 38 33 28 24 18 13 11 8 6 9 8 9 9 11 14 19 26 31 36 37 34 32 28
5 4 8 7 7 8 6 4 6 6 4 4 3 5 8 10 13 24 13 6 34 38 34 28 23 18 15 11 8 8 8 10 10 14 18 21 26 32 37 37 39 33 30 30
5 3 5 5 6 5 5 8 9 11 8 2 3 5 4 13 11 7 11 14 33 34 30 25 22 19 15 8 3 7 9 7 8 13 17 22 27 33 36 35 36 32 34 33
8 7 9 7 5 7 5 8 7 6 8 6 10 5 6 11 10 16 19 14 28 26 24 28 27 23 8 5 9 10 6 6 7 11 17 23 23 27 29 30 30 29 40 38
8 9 3 2 7 7 5 7 8 6 2 4 4 5 5 7 5 5 29 13 17 22 24 16 6 4 10 4 8 7 2 1 9 14 22 28 21 23 27 26 31 41 40 31
8 9 8 8 6 7 7 4 4 5 5 4 5 5 3 4 11 12 7 1 31 21 16 13 9 6 10 9 5 3 5 9 25 28 17 13 13 18 19 28 39 40 32 30
5 7 7 4 1 2 6 1 4 2 3 4 3 2 4 1 17 23 26 27 21 14 6 7 9 8 7 11 10 10 17 16 15 13 13 15 16 20 26 35 33 29 28 30
3 4 14 15 2 5 6 5 3 1 4 3 4 6 8 7 4 14 23 25 23 20 17 15 16 17 13 11 16 18 17 17 11 13 15 17 21 27 37 34 26 27 26 24
5 5 4 9 3 5 5 4 6 4 3 3 4 3 1 6 8 9 15 18 17 18 21 23 24 21 19 17 13 12 12 14 13 15 18 23 27 34 33 22 25 24 24 24
7 0 7 8 3 4 5 5 7 3 3 4 1 3 7 7 6 8 13 16 17 18 21 25 25 22 17 14 14 14 14 14 15 16 20 24 30 28 21 23 22 20 22 22
1 2 3 8 9 1 2 3 2 5 5 1 4 4 2 9 11 14 13 13 15 17 19 20 20 18 19 22 24 26 28 26 23 23 25 32 30 21 20 16 12 17 21 18
3 4 4 8 5 6 4 10 6 3 3 2 3 3 7 14 15 12 11 15 20 27 24 20 19 21 26 31 34 36 34 25 16 20 27 25 20 18 12 11 14 16 20 18
4 0 2 4 8 7 6 2 11 2 3 5 5 2 8 7 2 15 20 24 22 23 20 19 22 28 34 36 32 31 25 20 20 22 22 21 17 14 14 17 17 16 18 18
4 1 4 7 11 14 15 12 10 2 4 5 8 3 8 1 7 19 20 20 20 19 17 19 24 31 35 30 28 25 21 19 20 20 18 18 19 19 19 18 17 17 19 15
4 3 4 4 10 13 16 11 13 7 7 5 15 12 11 15 21 22 19 16 15 14 14 19 29 32 26 23 23 25 18 16 16 15 19 21 19 21 20 17 16 16 15 13
1 3 5 4 6 9 6 5 6 10 16 10 11 7 14 10 17 13 12 12 13 13 16 22 27 23 20 17 17 18 17 13 15 18 19 20 18 18 18 16 16 15 13 12
4 2 1 3 4 2 1 16 15 19 14 13 12 10 15 14 16 17 12 8 7 8 15 22 20 17 17 15 13 12 14 16 18 19 19 16 18 17 19 15 13 14 14 12
7 4 2 2 2 6 5 6 7 6 7 12 8 11 18 15 6 21 13 9 5 8 16 16 12 12 12 14 14 14 19 18 14 15 13 18 17 17 21 15 14 15 14 13
2 5 4 1 1 2 4 8 8 3 2 14 14 15 15 13 3 2 9 9 10 16 22 15 12 9 11 13 14 16 18 17 14 13 13 17 19 14 17 14 14 12 14 13
2 2 5 4 4 2 12 16 20 1 2 11 13 10 12 8 11 10 8 8 12 22 16 10 9 12 14 14 16 16 16 15 14 14 14 16 15 16 14 11 10 11 13 15
1 3 1 2 3 3 5 9 5 1 11 16 17 15 15 13 13 12 11 12 17 17 11 5 9 13 14 14 14 14 14 14 13 11 10 13 11 14 13 12 14 13 8 10
3 2 1 4 3 10 13 13 17 14 18 18 16 14 12 11 11 11 13 13 14 10 6 8 14 14 12 11 12 12 15 16 16 14 11 14 14 10 9 13 16 20 11 11
3 4 3 4 3 6 15 17 16 16 14 13 12 10 12 11 10 10 9 10 10 6 9 11 14 12 12 14 17 13 11 21 19 11 7 13 13 12 11 12 17 17 17 16
5 3 4 7 11 18 15 13 11 10 7 7 11 13 11 7 10 10 9 7 7 10 11 13 13 13 13 12 14 16 14 15 15 14 12 13 11 9 10 13 15 16 15 16
3 1 3 3 6 13 13 11 9 7 9 10 9 10 9 9 9 10 9 8 10 12 13 12 11 14 13 14 14 16 16 17 13 14 13 13 9 10 10 9 10 13 11 14
Wind_Direction
259 168 225 237 239 243 279 343 306 21 72 129 202 206 192 184 187 188 198 208 169 160 151 153 154 155 156 165 205 269 283 303 303 343 344 337 346 348 351 341 333 322 319 317
276 210 237 302 339 355 343 339 314 314 168 74 36 344 327 185 197 198 204 220 160 148 149 150 149 155 169 182 187 248 276 290 311 318 325 331 337 341 342 341 345 336 328 323
254 265 38 3 340 333 312 325 353 328 106 148 201 302 272 275 210 199 183 107 154 152 150 150 153 164 179 183 188 224 264 289 297 308 314 322 328 335 338 341 342 344 338 329
310 67 56 351 305 328 6 12 15 356 15 303 62 274 354 351 314 94 89 92 143 150 153 160 162 164 165 152 228 247 272 277 288 299 314 330 336 337 335 331 333 332 331 320
274 355 26 346 26 30 294 34 356 334 328 4 345 34 308 32 4 3 339 90 136 141 153 158 152 152 186 191 259 250 236 264 262 306 329 332 331 331 330 327 327 322 323 319
273 266 138 324 2 338 339 349 348 335 321 346 128 67 295 334 171 115 281 210 144 127 122 123 113 139 172 238 223 172 187 187 321 325 325 320 326 326 324 325 322 326 323 330
332 327 104 72 347 339 2 34 350 350 1 257 135 151 225 67 76 57 6 61 86 83 96 105 127 156 162 143 122 72 17 354 326 315 324 338 322 319 316 319 327 323 326 329
37 347 9 59 340 27 323 213 156 295 321 279 115 152 249 78 76 68 71 72 79 87 87 50 71 57 16 334 318 319 315 329 326 307 305 305 302 314 328 330 327 324 326 324
7 295 334 326 257 67 309 331 233 205 297 18 144 354 8 327 42 58 72 77 69 61 55 40 22 17 22 20 8 2 350 336 318 296 292 294 303 318 328 329 323 321 324 326
348 327 325 297 14 261 265 219 12 2 30 339 352 111 221 60 46 59 59 51 53 52 48 60 69 57 46 40 23 3 354 349 325 310 309 313 319 326 331 335 334 328 326 322
17 62 303 327 40 328 12 348 43 314 154 182 292 220 149 126 80 54 52 62 53 45 50 60 56 45 42 33 16 3 347 332 322 314 314 318 329 331 327 324 337 343 337 332
2 252 290 275 313 191 59 13 259 134 280 90 152 279 126 96 83 71 64 56 51 57 57 52 45 26 5 352 344 340 332 327 322 321 320 325 329 330 336 342 346 355 359 2
338 346 8 344 353 27 58 305 299 83 74 182 124 233 35 35 53 39 39 39 58 59 45 35 18 10 358 346 338 335 335 339 329 328 326 326 333 335 343 354 347 349 348 351
96 298 188 214 267 291 285 171 298 225 137 218 217 50 11 26 42 50 41 61 47 42 38 22 8 356 347 339 335 337 342 346 335 339 339 339 346 1 11 356 350 347 346 343
137 192 299 309 312 307 302 318 313 300 275 165 205 149 199 23 55 67 59 47 34 29 19 6 354 349 343 339 340 351 349 352 346 343 353 20 16 5 357 355 347 341 343 343
359 278 316 304 306 318 316 319 288 348 326 52 98 89 91 65 82 71 60 44 34 39 12 355 349 344 346 347 345 349 355 4 3 25 18 6 2 359 354 352 357 356 355 354
41 16 352 264 320 323 336 287 338 58 34 52 69 70 44 54 81 69 78 51 42 24 354 347 343 345 344 349 350 354 0 33 22 9 6 1 2 358 1 354 354 0 2 4
177 89 269 267 15 335 237 34 47 73 48 42 41 29 54 84 94 57 57 65 69 7 347 343 343 349 345 352 358 22 34 23 13 8 3 8 4 3 3 2 10 12 9 6
161 116 310 141 202 260 311 33 58 57 38 23 24 21 41 26 118 66 76 74 68 2 349 352 353 351 356 36 33 22 13 4 5 357 7 12 10 10 9 20 18 21 14 16
28 145 139 336 290 297 27 5 346 90 79 5 21 46 34 31 42 51 43 26 14 1 358 359 359 46 43 34 24 14 12 5 13 22 23 14 12 8 7 13 20 27 20 22
277 265 206 236 229 112 350 345 321 172 299 357 77 52 39 35 78 75 43 33 0 352 358 4 74 40 26 23 21 15 15 21 22 14 12 5 5 11 14 23 30 36 26 22
66 307 252 354 61 270 359 39 24 355 42 50 56 47 51 49 29 13 3 360 353 351 11 59 50 37 24 21 19 13 14 358 355 357 356 357 348 1 18 8 6 360 36 37
37 99 184 131 196 194 183 113 80 69 60 52 55 36 24 23 8 359 358 353 348 5 59 45 48 35 25 34 11 1 338 336 341 334 344 2 359 353 358 351 5 21 20 19
59 34 70 102 104 129 102 81 70 62 60 53 41 15 357 10 360 16 353 343 358 39 84 55 37 23 8 352 340 347 335 333 332 324 348 8 357 354 358 357 9 22 24 26
183 138 105 104 106 90 77 78 73 51 35 28 7 360 18 25 16 18 13 40 59 87 72 36 14 0 357 32 17 4 17 31 30 26 24 4 6 11 15 18 14 8 20 18
71 122 105 161 80 106 100 84 78 71 56 20 25 30 5 36 50 46 43 81 86 74 48 22 12 52 22 24 30 28 21 27 32 22 22 40 37 35 17 11 17 7 14 4
Height
1513 1523 1531 1519 1511 1508 1508 1511 1514 1500 1491 1499 1504 1505 1506 1504 1507 1507 1510 1513 1517 1518 1524 1527 1531 1535 1540 1544 1548 1551 1556 1558 1559 1558 1555 1552 1551 1550 1548 1546 1545 1541 1537 1533
1517 1525 1507 1502 1501 1504 1506 1512 1516 1501 1495 1500 1508 1509 1503 1505 1503 1502 1504 1507 1512 1519 1523 1527 1531 1534 1538 1541 1543 1547 1550 1552 1555 1554 1552 1550 1549 1547 1545 1543 1538 1535 1531 1528
1516 1508 1502 1504 1507 1509 1508 1514 1515 1516 1501 1500 1505 1516 1510 1500 1500 1501 1503 1505 1508 1515 1522 1528 1531 1535 1537 1540 1540 1545 1546 1546 1548 1550 1548 1546 1543 1541 1539 1536 1533 1530 1528 1525
1509 1503 1505 1508 1510 1507 1519 1507 1508 1511 1521 1536 1509 1547 1515 1512 1503 1504 1505 1507 1510 1517 1522 1527 1531 1534 1536 1539 1541 1542 1543 1542 1543 1545 1544 1541 1537 1534 1532 1531 1529 1525 1522 1518
1517 1510 1510 1512 1512 1507 1515 1507 1512 1512 1522 1526 1526 1542 1532 1525 1532 1524 1520 1510 1516 1521 1525 1528 1532 1535 1538 1538 1539 1539 1540 1542 1542 1542 1541 1539 1535 1532 1527 1526 1524 1521 1517 1513
1509 1503 1504 1508 1508 1507 1505 1509 1513 1516 1524 1552 1544 1546 1544 1541 1540 1535 1533 1521 1519 1522 1526 1532 1536 1538 1540 1541 1543 1541 1540 1539 1543 1539 1535 1532 1531 1527 1523 1521 1519 1516 1511 1506
1513 1509 1502 1506 1514 1509 1513 1523 1557 1558 1557 1553 1525 1544 1547 1535 1535 1530 1529 1520 1524 1531 1534 1538 1541 1542 1542 1541 1541 1540 1540 1539 1540 1536 1531 1528 1527 1524 1520 1518 1515 1510 1505 1501
1537 1541 1513 1510 1513 1519 1519 1523 1553 1563 1564 1554 1524 1546 1546 1530 1529 1526 1528 1531 1533 1537 1540 1539 1539 1541 1540 1540 1539 1540 1540 1536 1534 1534 1529 1525 1523 1520 1517 1514 1510 1506 1502 1497
1537 1531 1515 1513 1509 1514 1523 1534 1518 1534 1531 1551 1550 1543 1536 1531 1529 1527 1528 1531 1536 1540 1540 1541 1541 1541 1541 1540 1538 1538 1536 1533 1532 1529 1525 1521 1519 1517 1513 1509 1506 1502 1498 1493
1527 1543 1519 1515 1512 1512 1519 1514 1542 1547 1567 1565 1554 1553 1553 1539 1537 1537 1538 1538 1539 1540 1541 1541 1540 1541 1541 1539 1537 1537 1536 1534 1530 1525 1522 1518 1516 1513 1508 1504 1501 1497 1493 1489
1529 1533 1534 1519 1523 1527 1528 1532 1537 1541 1546 1566 1567 1557 1533 1540 1538 1536 1538 1541 1542 1543 1542 1542 1540 1540 1539 1538 1538 1536 1534 1531 1527 1521 1517 1514 1512 1508 1503 1500 1497 1493 1490 1486
1534 1535 1545 1535 1519 1514 1519 1527 1532 1559 1553 1549 1561 1565 1531 1535 1537 1538 1542 1543 1543 1542 1542 1541 1541 1537 1536 1535 1533 1531 1528 1525 1522 1518 1514 1511 1506 1503 1500 1496 1495 1492 1489 1486
1535 1545 1560 1548 1530 1523 1527 1525 1527 1528 1537 1547 1567 1559 1538 1534 1535 1540 1546 1544 1543 1542 1542 1541 1539 1537 1535 1533 1530 1526 1522 1520 1518 1515 1511 1507 1503 1499 1497 1495 1493 1491 1489 1486
1534 1541 1549 1564 1549 1535 1536 1524 1530 1528 1552 1545 1543 1545 1546 1540 1539 1539 1542 1543 1544 1544 1542 1541 1538 1537 1535 1531 1527 1524 1520 1517 1515 1512 1508 1504 1500 1499 1497 1495 1493 1490 1488 1486
1535 1546 1541 1539 1533 1529 1527 1523 1520 1523 1525 1541 1529 1536 1547 1545 1543 1543 1542 1542 1543 1543 1541 1540 1539 1537 1533 1529 1525 1522 1518 1516 1513 1510 1507 1504 1502 1500 1497 1494 1492 1490 1487 1484
1536 1545 1537 1542 1533 1530 1530 1523 1519 1517 1517 1522 1533 1539 1539 1541 1542 1543 1545 1546 1546 1545 1543 1540 1537 1534 1530 1528 1524 1521 1517 1515 1513 1511 1509 1506 1503 1500 1497 1494 1492 1489 1486 1483
1538 1544 1548 1549 1535 1534 1545 1526 1523 1523 1528 1528 1543 1546 1540 1541 1543 1544 1543 1544 1543 1542 1541 1539 1537 1533 1530 1527 1524 1521 1517 1516 1515 1512 1509 1507 1504 1502 1498 1495 1492 1489 1486 1483
1536 1541 1546 1557 1544 1565 1534 1525 1526 1534 1540 1540 1541 1542 1544 1544 1544 1542 1541 1541 1541 1541 1541 1539 1536 1533 1530 1526 1524 1522 1519 1518 1516 1513 1511 1508 1505 1502 1499 1495 1492 1489 1486 1483
1528 1539 1555 1562 1563 1541 1530 1535 1538 1541 1548 1544 1544 1544 1544 1544 1543 1546 1543 1540 1540 1541 1540 1537 1535 1533 1529 1527 1525 1523 1521 1519 1516 1514 1512 1509 1506 1503 1500 1496 1493 1490 1487 1484
1529 1533 1551 1548 1557 1553 1546 1539 1538 1538 1554 1549 1547 1547 1547 1546 1548 1549 1545 1541 1540 1539 1537 1535 1534 1532 1531 1528 1526 1524 1522 1519 1516 1514 1512 1510 1507 1504 1501 1497 1494 1491 1488 1485
1540 1539 1548 1550 1556 1545 1552 1545 1539 1552 1561 1550 1550 1550 1549 1550 1550 1549 1545 1541 1540 1539 1536 1535 1534 1532 1531 1529 1527 1525 1523 1521 1519 1516 1514 1512 1508 1505 1501 1498 1495 1492 1488 1486
1540 1548 1546 1544 1547 1558 1550 1547 1556 1555 1551 1549 1550 1550 1549 1549 1547 1545 1544 1541 1540 1538 1536 1535 1534 1533 1532 1530 1528 1527 1524 1522 1519 1517 1514 1511 1508 1505 1502 1498 1495 1492 1488 1486
1547 1542 1547 1546 1550 1547 1549 1548 1550 1551 1552 1552 1550 1550 1548 1547 1546 1544 1543 1542 1540 1538 1537 1537 1536 1535 1533 1532 1530 1527 1524 1522 1518 1516 1514 1511 1509 1505 1501 1498 1494 1491 1489 1486
1536 1536 1541 1543 1548 1549 1550 1550 1551 1552 1553 1552 1550 1549 1548 1547 1545 1545 1543 1541 1539 1538 1539 1538 1537 1536 1535 1533 1530 1526 1524 1520 1515 1513 1512 1509 1507 1505 1502 1498 1495 1492 1489 1486
1536 1536 1539 1548 1550 1550 1551 1552 1552 1552 1552 1551 1550 1548 1548 1547 1546 1544 1542 1541 1541 1541 1541 1540 1539 1537 1535 1531 1530 1527 1523 1520 1516 1513 1512 1510 1507 1505 1502 1499 1497 1493 1490 1487
1536 1539 1545 1551 1548 1549 1553 1553 1552 1551 1552 1551 1550 1550 1549 1547 1546 1545 1544 1543 1543 1543 1543 1542 1539 1537 1536 1533 1531 1528 1525 1522 1518 1515 1513 1511 1508 1506 1503 1501 1498 1495 1492 1490